Location: Forest
(37.3641°N, 79.2902°W)
Time: 00:57:22
(UTC+00:00)

Hubble Space Telescope - Visible Passes

Search period start: 25 January 2026 00:00
Search period end: 04 February 2026 00:00
Orbit: 478 x 481 km, 28.5° (Epoch: 24 January)

Date Brightness Start Highest point End Pass type
(mag) Time Alt. Az. Time Alt. Az. Time Alt. Az.
25 Jan 3.0 00:46:06 10° SW 00:47:31 16° SSW 00:47:31 16° SSW visible
26 Jan 2.4 00:16:13 10° SW 00:19:02 20° S 00:19:22 20° SSE visible
26 Jan 2.5 23:46:18 10° SW 23:49:07 20° S 23:51:12 13° SE visible
27 Jan 2.6 23:16:21 10° SW 23:19:10 20° S 23:21:59 10° SE visible
28 Jan 3.1 00:55:46 10° SW 00:57:10 16° SW 00:57:10 16° SW visible
29 Jan 2.6 00:25:48 10° SW 00:28:30 19° S 00:29:01 18° S visible
29 Jan 2.7 23:55:49 10° SW 23:58:30 19° S 00:00:53 11° SE visible
30 Jan 2.8 23:25:48 10° SW 23:28:30 19° S 23:31:11 10° SE visible
